Weather History for KUXL - October, 2012

Change the Weather History Date:

Monday, October 1, 2012

  Actual Average (KLCH) Record (KLCH)
Temperature  
Mean Temperature 71 °F 74 °F  
Max Temperature 82 °F 85 °F 97 °F (1904)
Min Temperature 60 °F 64 °F 42 °F (1924)
Degree Days  
Heating Degree Days 0 0  
Month to date heating degree days 0  
Since 1 July heating degree days 1  
Cooling Degree Days 6 10  
Month to date cooling degree days 10  
Year to date cooling degree days 2550  
Growing Degree Days 21 (Base 50)    
Moisture  
Dew Point 60 °F    
Average Humidity 77    
Maximum Humidity 100    
Minimum Humidity 42    
Precipitation  
Precipitation 0.00 in 0.15 in 0.96 in (1988)
Month to date precipitation 0.15  
Year to date precipitation 43.63  
Snow  
Snow 0.00 in 0.00 in 0.00 in ()
Month to date snowfall 0.0  
Since 1 July snowfall 0.0  
Since 1 September snowfall 0.0  
Snow Depth -    
Sea Level Pressure  
Sea Level Pressure 29.74 in    
Wind  
Wind Speed 10 mph (NW)    
Max Wind Speed 17 mph    
Max Gust Speed 24 mph    
Visibility 10 miles    
Events Rain    
T = Trace of Precipitation, MM = Missing Value Source: NWS Daily Summary

Daily Weather History Graph

Daily Weather History Graph

Search for Another Location

Airport or City:

Trip Planner

Search our weather history database for the weather conditions in past years. The results will help you decide how hot, cold, wet, or windy it might be!

Date:

Astronomy

Oct. 01, 2012 Rise Set
Actual Time 7:07 AM CDT 6:58 PM CDT
Civil Twilight 6:43 AM CDT 7:22 PM CDT
Nautical Twilight 6:15 AM CDT 7:49 PM CDT
Astronomical Twilight 5:47 AM CDT 8:17 PM CDT
Moon 7:47 PM CDT (10/1) 8:26 AM CDT (10/1)
Length of Visible Light 12h 38m
Length of Day
11h 51m
Full, 98% of the Moon is Illuminated
Oct 1
Full
Oct 8
Last Quarter
Oct 15
New
Oct 21
First Quarter
Oct 29
Full

Hourly Weather History & Observations

Time (CDT) Temp. Heat Index Dew Point Humidity Pressure Visibility Wind Dir Wind Speed Gust Speed Precip Events Conditions
12:15 AM 62.6 °F - 60.8 °F 94% 29.71 in 10.0 mi NW 10.4 mph - N/A   Overcast
12:35 AM 62.6 °F - 60.8 °F 94% 29.70 in 10.0 mi NW 11.5 mph 20.7 mph N/A   Overcast
12:55 AM 62.6 °F - 60.8 °F 94% 29.70 in 5.0 mi NW 8.1 mph - N/A   Heavy Drizzle
1:15 AM 60.8 °F - 60.8 °F 100% 29.70 in 7.0 mi NNW 9.2 mph 16.1 mph N/A   Light Drizzle
1:35 AM 60.8 °F - 60.8 °F 100% 29.70 in 10.0 mi NW 10.4 mph - N/A   Overcast
1:55 AM 60.8 °F - 60.8 °F 100% 29.70 in 5.0 mi NW 10.4 mph - N/A   Overcast
2:35 AM 60.8 °F - 60.8 °F 100% 29.70 in 10.0 mi NW 10.4 mph - N/A   Overcast
2:55 AM 60.8 °F - 60.8 °F 100% 29.69 in 10.0 mi NW 9.2 mph - N/A   Overcast
3:15 AM 60.8 °F - 60.8 °F 100% 29.69 in 10.0 mi NW 9.2 mph - N/A   Overcast
4:15 AM 60.8 °F - 60.8 °F 100% 29.70 in 10.0 mi WNW 11.5 mph - N/A   Overcast
5:15 AM 60.8 °F - 60.8 °F 100% 29.71 in 5.0 mi WNW 10.4 mph 18.4 mph N/A Rain Rain
5:35 AM 60.8 °F - 60.8 °F 100% 29.71 in 3.0 mi NW 13.8 mph 18.4 mph N/A   Drizzle
5:55 AM 60.8 °F - 60.8 °F 100% 29.72 in 4.0 mi NW 12.7 mph 21.9 mph N/A   Drizzle
6:15 AM 60.8 °F - 60.8 °F 100% 29.72 in 7.0 mi NW 10.4 mph - N/A   Overcast
6:35 AM 60.8 °F - 60.8 °F 100% 29.73 in 10.0 mi NW 10.4 mph - N/A   Overcast
6:55 AM 60.8 °F - 59.0 °F 94% 29.73 in 10.0 mi NW 9.2 mph 18.4 mph N/A   Overcast
7:15 AM 62.6 °F - 59.0 °F 88% 29.74 in 10.0 mi NW 10.4 mph - N/A   Overcast
7:35 AM 62.6 °F - 59.0 °F 88% 29.75 in 10.0 mi NNW 9.2 mph - N/A   Overcast
7:55 AM 62.6 °F - 60.8 °F 94% 29.75 in 10.0 mi NW 8.1 mph - N/A   Overcast
8:15 AM 62.6 °F - 60.8 °F 94% 29.75 in 10.0 mi NW 6.9 mph - N/A   Overcast
8:35 AM 64.4 °F - 60.8 °F 88% 29.76 in 10.0 mi WNW 9.2 mph - N/A   Overcast
8:55 AM 64.4 °F - 60.8 °F 88% 29.77 in 10.0 mi WNW 4.6 mph - N/A   Overcast
9:15 AM 64.4 °F - 60.8 °F 88% 29.77 in 10.0 mi West 8.1 mph - N/A   Overcast
9:35 AM 68.0 °F - 60.8 °F 78% 29.77 in 10.0 mi West 10.4 mph - N/A   Overcast
9:55 AM 68.0 °F - 60.8 °F 78% 29.77 in 10.0 mi WNW 11.5 mph - N/A   Mostly Cloudy
10:15 AM 69.8 °F - 60.8 °F 73% 29.77 in 10.0 mi WNW 10.4 mph - N/A   Overcast
10:35 AM 69.8 °F - 60.8 °F 73% 29.77 in 10.0 mi NW 11.5 mph - N/A   Scattered Clouds
10:55 AM 71.6 °F - 59.0 °F 64% 29.76 in 10.0 mi NW 12.7 mph 20.7 mph N/A   Clear
11:15 AM 73.4 °F - 60.8 °F 65% 29.75 in 10.0 mi NW 11.5 mph - N/A   Clear
11:35 AM 73.4 °F - 60.8 °F 65% 29.75 in 10.0 mi NW 16.1 mph - N/A   Clear
11:55 AM 75.2 °F - 59.0 °F 57% 29.75 in 10.0 mi NW 13.8 mph 21.9 mph N/A   Clear
12:15 PM 77.0 °F - 60.8 °F 57% 29.75 in 10.0 mi NW 15.0 mph 20.7 mph N/A   Clear
12:35 PM 77.0 °F - 60.8 °F 57% 29.74 in 10.0 mi NW 12.7 mph 18.4 mph N/A   Clear
1:15 PM 78.8 °F - 59.0 °F 51% 29.73 in 10.0 mi WNW 13.8 mph 21.9 mph N/A   Scattered Clouds
1:35 PM 78.8 °F - 59.0 °F 51% 29.72 in 10.0 mi WNW 12.7 mph 19.6 mph N/A   Clear
2:15 PM 80.6 °F 81.5 °F 60.8 °F 51% 29.71 in 10.0 mi WNW 12.7 mph 19.6 mph N/A   Scattered Clouds
2:55 PM 82.4 °F 82.5 °F 59.0 °F 45% 29.71 in 10.0 mi NW 15.0 mph 21.9 mph N/A   Scattered Clouds
3:15 PM 80.6 °F 80.8 °F 57.2 °F 45% 29.71 in 10.0 mi NW 13.8 mph 21.9 mph N/A   Clear
3:35 PM 80.6 °F 80.5 °F 55.4 °F 42% 29.71 in 10.0 mi NW 13.8 mph 24.2 mph N/A   Clear
3:55 PM 80.6 °F 80.5 °F 55.4 °F 42% 29.71 in 10.0 mi NW 13.8 mph 21.9 mph N/A   Clear
4:15 PM 80.6 °F 80.5 °F 55.4 °F 42% 29.71 in 10.0 mi NNW 13.8 mph 21.9 mph N/A   Clear
4:35 PM 80.6 °F 80.5 °F 55.4 °F 42% 29.72 in 10.0 mi NW 17.3 mph 21.9 mph N/A   Clear
4:55 PM 80.6 °F 80.5 °F 55.4 °F 42% 29.72 in 10.0 mi NW 13.8 mph 19.6 mph N/A   Clear
5:15 PM 80.6 °F 80.5 °F 55.4 °F 42% 29.72 in 10.0 mi NW 11.5 mph - N/A   Clear
5:35 PM 78.8 °F - 55.4 °F 44% 29.72 in 10.0 mi NNW 11.5 mph - N/A   Clear
5:55 PM 78.8 °F - 57.2 °F 47% 29.73 in 10.0 mi NW 11.5 mph - N/A   Clear
6:15 PM 77.0 °F - 57.2 °F 50% 29.73 in 10.0 mi NNW 8.1 mph - N/A   Clear
6:35 PM 73.4 °F - 57.2 °F 57% 29.73 in 10.0 mi NNW 8.1 mph - N/A   Clear
6:55 PM 71.6 °F - 57.2 °F 60% 29.74 in 10.0 mi NW 5.8 mph - N/A   Clear
7:15 PM 69.8 °F - 59.0 °F 68% 29.75 in 10.0 mi NNW 4.6 mph - N/A   Clear
7:35 PM 68.0 °F - 60.8 °F 78% 29.75 in 10.0 mi NNW 3.5 mph - N/A   Clear
7:55 PM 68.0 °F - 60.8 °F 78% 29.75 in 10.0 mi NNW 3.5 mph - N/A   Clear
8:15 PM 68.0 °F - 60.8 °F 78% 29.77 in 10.0 mi Calm Calm - N/A   Clear
8:35 PM 68.0 °F - 60.8 °F 78% 29.78 in 10.0 mi Calm Calm - N/A   Clear
8:55 PM 66.2 °F - 60.8 °F 83% 29.79 in 10.0 mi Calm Calm - N/A   Clear
9:15 PM 64.4 °F - 60.8 °F 88% 29.79 in 10.0 mi Calm Calm - N/A   Clear
9:35 PM 64.4 °F - 60.8 °F 88% 29.80 in 10.0 mi Calm Calm - N/A   Clear
9:55 PM 62.6 °F - 60.8 °F 94% 29.80 in 10.0 mi Calm Calm - N/A   Clear
10:15 PM 64.4 °F - 60.8 °F 88% 29.80 in 10.0 mi Calm Calm - N/A   Clear
10:35 PM 62.6 °F - 60.8 °F 94% 29.80 in 10.0 mi Calm Calm - N/A   Clear
10:55 PM 62.6 °F - 60.8 °F 94% 29.81 in 10.0 mi Calm Calm - N/A   Clear
11:15 PM 62.6 °F - 60.8 °F 94% 29.81 in 10.0 mi Calm Calm - N/A   Clear
11:35 PM 62.6 °F - 60.8 °F 94% 29.81 in 10.0 mi East 3.5 mph - N/A   Clear
11:55 PM 62.6 °F - 60.8 °F 94% 29.81 in 10.0 mi Calm Calm - N/A   Clear